Tracking 27419 objects as of 9-Jun-2023
HD Live streaming from Space Station
objects crossing your sky now

POLAR BEAR

Track POLAR BEAR now!
10-day predictions
POLAR BEAR is classified as:


NORAD ID: 17070
Int'l Code: 1986-088A
Perigee: 960.0 km
Apogee: 1,018.1 km
Inclination: 89.6 °
Period: 104.7 minutes
Semi major axis: 7360 km
RCS: 1.4926 m2 (large)
Launch date: November 14, 1986
Source: United States (US)
Launch site: AIR FORCE WESTERN TEST RANGE (AFWTR)
Your satellite tracking list
Your tracking list is empty




NASA's NSSDC Master Catalog

Two Line Element Set (TLE):
1 17070U 86088A   23159.90683019  .00000099  00000-0  92013-4 0  9998
2 17070  89.5852 221.6427 0039468  12.2409 161.0976 13.74946929833925
Source of the keplerian elements: AFSPC